This is the latest recevied weather packets stored in our database for station/object K4IR. If no packets are shown the sender has not sent any weather packets the latest 10 day(s).
| Time | Temp. | Humidity | Pressure | Rain* | Wind** | Luminosity | Snow |
|---|---|---|---|---|---|---|---|
| 1787500746 | 30° C | 75% | 1015 hPa | 0 mm | - | 613 W/m² | - |
| 1787500143 | 30° C | 76% | 1015 hPa | 0 mm | - | 603 W/m² | - |
| 1787499537 | 30° C | 78% | 1015 hPa | 0 mm | - | 512 W/m² | - |
| 1787498935 | 29.44° C | 76% | 1015.1 hPa | 0 mm | - | 184 W/m² | - |
| 1787498334 | 29.44° C | 78% | 1014.8 hPa | 0 mm | - | 216 W/m² | - |
| 1787497732 | 28.89° C | 79% | 1014.8 hPa | 0 mm | - | 157 W/m² | - |
| 1787497132 | 28.89° C | 80% | 1014.9 hPa | 0 mm | - | 149 W/m² | - |
| 1787496528 | 28.33° C | 83% | 1014.9 hPa | 0 mm | - | 153 W/m² | - |
| 1787495927 | 27.78° C | 82% | 1014.9 hPa | 0 mm | - | 213 W/m² | - |
| 1787495324 | 27.78° C | 83% | 1015.2 hPa | 0 mm | - | 210 W/m² | - |
| 1787494720 | 27.22° C | 86% | 1015 hPa | 0 mm | - | 135 W/m² | - |
| 1787494117 | 26.67° C | 88% | 1015 hPa | 0 mm | - | 114 W/m² | - |
| 1787493513 | 25° C | 93% | 1014.9 hPa | 0 mm | - | 145 W/m² | - |
| 1787492911 | 25° C | 98% | 1015 hPa | 0 mm | - | 108 W/m² | - |
| 1787492307 | 24.44° C | 99% | 1014.9 hPa | 0 mm | - | 190 W/m² | - |
| 1787491704 | 24.44° C | 99% | 1015.1 hPa | 0 mm | - | 109 W/m² | - |
| 1787491100 | 23.89° C | 99% | 1014.9 hPa | 0 mm | - | 140 W/m² | - |
| 1787490495 | 23.89° C | 99% | 1014.9 hPa | 0 mm | - | 154 W/m² | - |
| 1787489894 | 23.89° C | 99% | 1015.1 hPa | 0 mm | - | 216 W/m² | - |
| 1787489292 | 23.33° C | 99% | 1014.9 hPa | 0 mm | - | 263 W/m² | - |
| 1787488688 | 23.33° C | 99% | 1015 hPa | 0 mm | - | 85 W/m² | - |
| 1787488088 | 22.78° C | 99% | 1014.9 hPa | 0 mm | - | 99 W/m² | - |
| 1787487486 | 22.78° C | 99% | 1015 hPa | 0 mm | - | 72 W/m² | - |
| 1787486882 | 22.78° C | 99% | 1014.5 hPa | 0 mm | - | 61 W/m² | - |
| 1787486281 | 22.22° C | 99% | 1014.6 hPa | 0 mm | - | 39 W/m² | - |
* Rain latest hour (hover to see other rain measurements)
** Current wind speed in m/s (hover to see current wind gust speed)